Location: Gro�wechsungen
(51.4926°N, 10.6901°E)
Time: 08:17:23
(UTC+00:00)

SPOT 3 Rocket - Pass Details

Date: 03 February 2021
Orbit: 780 x 794 km, 98.7° (Epoch: 24 February)

Event Time Altitude Azimuth Distance (km) Brightness Sun altitude
Exits shadow 19:40:18 26° 348° (NNW) 1,531 5.2 -32.6°
Drops below altitude 10° 19:42:27 10° 346° (NNW) 2,355 6.3 -32.9°
Sets 19:44:47 0° 346° (NNW) 3,290 7.1 -33.3°
